WX6HNX-6 Weather Reports


time (UTC)temp
F
wind
direction
speed
knots
gust
knots
rain 1hr
in
rain 24hr
in
rain mn
in
humidity
%
barometer
mb
20260506161235 63 312 5.2 9.6 0.00 0.00 0.00 70 1020.4
20260506160735 63 339 3.5 9.6 0.00 0.00 0.00 71 1020.4
20260506160235 63 316 3.5 7.8 0.00 0.00 0.00 72 1020.4
20260506155735 62 310 3.5 7.8 0.00 0.00 0.00 73 1020.5
20260506155235 62 346 4.3 8.7 0.00 0.00 0.00 73 1020.5
20260506154735 62 342 3.5 8.7 0.00 0.00 0.00 73 1020.6
20260506154235 61 318 4.3 9.6 0.00 0.00 0.00 74 1020.6
20260506153735 61 328 2.6 9.6 0.00 0.00 0.00 75 1020.6
20260506153235 61 332 2.6 9.6 0.00 0.00 0.00 75 1020.6
20260506152735 60 315 6.1 9.6 0.00 0.00 0.00 76 1020.6
20260506152235 60 338 4.3 8.7 0.00 0.00 0.00 77 1020.6
20260506151334 59 312 3.5 8.7 0.00 0.00 0.00 78 1020.6
20260506150835 58 317 3.5 8.7 0.00 0.00 0.00 79 1020.6
20260506150335 57 283 3.5 6.1 0.00 0.00 0.00 79 1020.6
20260506145834 57 290 2.6 7.0 0.00 0.00 0.00 80 1020.6
20260506145335 56 295 3.5 7.0 0.00 0.00 0.00 80 1020.6
20260506144335 55 258 1.7 4.3 0.00 0.00 0.00 80 1020.7
20260506143834 54 246 3.5 6.1 0.00 0.00 0.00 80 1020.7
20260506143335 54 244 3.5 6.1 0.00 0.00 0.00 81 1020.6
20260506142835 54 245 3.5 4.3 0.00 0.00 0.00 81 1020.5
20260506142334 53 242 2.6 4.3 0.00 0.00 0.00 81 1020.5
20260506141834 53 245 2.6 4.3 0.00 0.00 0.00 81 1020.4
20260506140835 52 244 3.5 5.2 0.00 0.00 0.00 81 1020.4
20260506140334 51 242 3.5 4.3 0.00 0.00 0.00 81 1020.4
20260506135834 51 240 2.6 4.3 0.00 0.00 0.00 81 1020.3
20260506135335 51 246 2.6 4.3 0.00 0.00 0.00 81 1020.3
20260506134834 50 239 1.7 4.3 0.00 0.00 0.00 81 1020.2
20260506134334 50 234 2.6 4.3 0.00 0.00 0.00 81 1020.2
20260506133835 50 236 2.6 3.5 0.00 0.00 0.00 81 1020.1
20260506133334 49 242 1.7 2.6 0.00 0.00 0.00 81 1020.1
20260506132835 49 245 1.7 2.6 0.00 0.00 0.00 81 1020.0
20260506132039 49 234 1.7 2.6 0.00 0.00 0.00 81 1019.9
20260506131539 49 229 1.7 3.5 0.00 0.00 0.00 80 1019.9
20260506131040 49 229 1.7 3.5 0.00 0.00 0.00 80 1019.8
20260506125747 50 240 2.6 4.3 0.00 0.00 0.00 80 1019.7
20260506125247 50 237 2.6 4.3 0.00 0.00 0.00 80 1019.6
20260506124746 50 234 2.6 4.3 0.00 0.00 0.00 80 1019.6
20260506124247 50 235 2.6 4.3 0.00 0.00 0.00 80 1019.6
20260506123747 50 249 1.7 3.5 0.00 0.00 0.00 80 1019.6
20260506123246 50 256 0.9 2.6 0.00 0.00 0.00 80 1019.5
20260506122746 50 257 0.9 2.6 0.00 0.00 0.00 80 1019.5
20260506122247 50 258 1.7 2.6 0.00 0.00 0.00 79 1019.4
20260506121540 50 249 1.7 2.6 0.00 0.00 0.00 79 1019.3
20260506121040 50 247 1.7 2.6 0.00 0.00 0.00 79 1019.4
20260506120540 50 240 0.9 2.6 0.00 0.00 0.00 79 1019.4
20260506120040 50 243 1.7 2.6 0.00 0.00 0.00 79 1019.3
20260506115540 50 242 0.9 3.5 0.00 0.00 0.00 79 1019.3
20260506115042 50 234 2.6 3.5 0.00 0.00 0.00 79 1019.3
20260506114540 50 238 1.7 3.5 0.00 0.00 0.00 79 1019.2
20260506113847 50 239 1.7 3.5 0.00 0.00 0.00 79 1019.1
20260506113347 50 236 0.9 3.5 0.00 0.00 0.00 79 1019.2
20260506112848 50 231 1.7 3.5 0.00 0.00 0.00 79 1019.0
20260506112348 50 229 1.7 2.6 0.00 0.00 0.00 79 1019.0
20260506111424 50 236 1.7 3.5 0.00 0.00 0.00 79 1018.9
20260506110924 50 236 2.6 3.5 0.00 0.00 0.00 79 1018.9
20260506110425 50 238 1.7 3.5 0.00 0.00 0.00 79 1018.8
20260506105241 50 229 1.7 3.5 0.00 0.00 0.00 79 1018.8
20260506104743 51 229 2.6 4.3 0.00 0.00 0.00 78 1018.8
20260506104241 51 235 2.6 4.3 0.00 0.00 0.00 78 1018.8
20260506103741 51 232 2.6 4.3 0.00 0.00 0.00 78 1018.7
20260506103241 51 238 2.6 5.2 0.00 0.00 0.00 78 1018.7
20260506102742 51 243 3.5 5.2 0.00 0.00 0.00 78 1018.6
20260506102242 51 248 3.5 5.2 0.00 0.00 0.00 78 1018.6
20260506101741 51 246 2.6 4.3 0.00 0.00 0.00 78 1018.6
20260506101242 51 255 0.9 3.5 0.00 0.00 0.00 77 1018.5
20260506100742 51 237 0.9 4.3 0.00 0.00 0.00 77 1018.6
20260506100241 51 235 1.7 4.3 0.00 0.00 0.00 77 1018.5
20260506095741 52 235 2.6 4.3 0.00 0.00 0.00 76 1018.6
20260506095243 52 233 2.6 4.3 0.00 0.00 0.00 76 1018.6
20260506094742 52 247 1.7 4.3 0.00 0.00 0.00 76 1018.5
20260506094241 52 241 2.6 5.2 0.00 0.00 0.00 76 1018.5
20260506093742 52 239 3.5 5.2 0.00 0.00 0.00 77 1018.6
20260506093242 52 246 2.6 3.5 0.00 0.00 0.00 77 1018.5
20260506092741 52 255 1.7 3.5 0.00 0.00 0.00 76 1018.5
20260506092241 53 250 1.7 4.3 0.00 0.00 0.00 76 1018.5
20260506091741 53 245 2.6 4.3 0.00 0.00 0.00 76 1018.5
20260506091242 53 246 2.6 3.5 0.00 0.00 0.00 77 1018.5
20260506090741 54 252 2.6 3.5 0.00 0.00 0.00 78 1018.5
20260506090242 54 264 2.6 3.5 0.00 0.00 0.00 78 1018.5
20260506085648 54 262 1.7 4.3 0.00 0.00 0.00 77 1018.5
20260506085148 54 252 2.6 4.3 0.00 0.00 0.00 77 1018.6
20260506084648 54 259 2.6 3.5 0.00 0.00 0.00 77 1018.6
20260506084148 54 274 2.6 3.5 0.00 0.00 0.00 77 1018.6
20260506083631 55 283 1.7 3.5 0.00 0.00 0.00 77 1018.6
20260506083131 55 288 2.6 3.5 0.00 0.00 0.00 77 1018.5
20260506082632 55 295 2.6 5.2 0.00 0.00 0.00 77 1018.5
20260506082132 55 293 2.6 5.2 0.00 0.00 0.00 77 1018.5
20260506081131 55 292 1.7 3.5 0.00 0.00 0.00 76 1018.5
20260506080631 55 294 1.7 3.5 0.00 0.00 0.00 75 1018.3
20260506080131 55 298 2.6 3.5 0.00 0.00 0.00 75 1018.3
20260506073131 56 318 2.6 4.3 0.00 0.00 0.00 74 1018.2
20260506072631 56 324 2.6 4.3 0.00 0.00 0.00 75 1018.1
20260506072132 56 323 2.6 4.3 0.00 0.00 0.00 74 1018.1
20260506071132 57 325 2.6 5.2 0.00 0.00 0.00 75 1018.0
20260506070631 57 333 3.5 5.2 0.00 0.00 0.00 74 1017.9
20260506070132 57 339 2.6 7.0 0.00 0.00 0.00 74 1017.8
20260506062404 56 330 3.5 5.2 0.00 0.00 0.00 72 1017.7
20260506061905 56 326 3.5 5.2 0.00 0.00 0.00 71 1017.6
20260506061404 56 331 1.7 4.3 0.00 0.00 0.00 71 1017.6
20260506060405 56 321 1.7 3.5 0.00 0.00 0.00 70 1017.6
20260506051404 57 355 1.7 2.6 0.00 0.00 0.00 69 1017.1
20260506050906 58 355 0.9 2.6 0.00 0.00 0.00 68 1017.0
20260506050405 58 355 0.9 2.6 0.00 0.00 0.00 68 1016.9
20260506044904 58 355 1.7 3.5 0.00 0.00 0.00 66 1016.7
20260506044404 59 355 1.7 3.5 0.00 0.00 0.00 66 1016.6
20260506043906 59 355 1.7 2.6 0.00 0.00 0.00 66 1016.6
20260506043404 59 355 0.9 2.6 0.00 0.00 0.00 65 1016.6
20260506042905 59 355 0.9 1.7 0.00 0.00 0.00 65 1016.5
20260506042404 59 355 0.9 2.6 0.00 0.00 0.00 64 1016.4
20260506041905 60 355 0.9 2.6 0.00 0.00 0.00 64 1016.3
20260506041405 60 355 0.9 1.7 0.00 0.00 0.00 63 1016.2
20260506040907 60 355 0.9 1.7 0.00 0.00 0.00 64 1016.2
20260506040405 60 355 0.9 2.6 0.00 0.00 0.00 64 1016.1
20260506035905 61 355 0.9 2.6 0.00 0.00 0.00 64 1016.1
20260506035405 61 355 0.9 2.6 0.00 0.00 0.00 63 1016.0
20260506034905 61 355 0.9 2.6 0.00 0.00 0.00 63 1016.0
20260506034405 61 355 1.7 2.6 0.00 0.00 0.00 63 1015.9
20260506033905 61 355 0.9 3.5 0.00 0.00 0.00 62 1015.9
20260506033404 62 355 1.7 3.5 0.00 0.00 0.00 61 1015.8
20260506032906 62 355 2.6 3.5 0.00 0.00 0.00 60 1015.8
20260506032405 63 355 1.7 3.5 0.00 0.00 0.00 60 1015.7
20260506031904 63 355 1.7 3.5 0.00 0.00 0.00 59 1015.6
20260506031404 63 355 1.7 3.5 0.00 0.00 0.00 59 1015.5
20260506030905 64 355 1.7 3.5 0.00 0.00 0.00 59 1015.4
20260506030405 64 354 1.7 4.3 0.00 0.00 0.00 58 1015.4
20260506025404 65 345 2.6 7.0 0.00 0.00 0.00 57 1015.2
20260506024904 65 337 2.6 5.2 0.00 0.00 0.00 57 1015.1
20260506024405 65 355 1.7 7.8 0.00 0.00 0.00 57 1015.1
20260506023906 65 10 3.5 7.8 0.00 0.00 0.00 57 1015.0
20260506023405 66 14 3.5 7.0 0.00 0.00 0.00 57 1015.0
20260506022848 66 14 3.5 7.8 0.00 0.00 0.00 56 1014.9
20260506022347 66 14 3.5 7.8 0.00 0.00 0.00 56 1014.9
20260506021848 66 26 2.6 7.0 0.00 0.00 0.00 56 1014.8
20260506021348 66 31 2.6 7.8 0.00 0.00 0.00 55 1014.7
20260506020848 66 12 4.3 7.8 0.00 0.00 0.00 56 1014.8
20260506020348 66 28 3.5 7.8 0.00 0.00 0.00 56 1014.8
20260506015847 66 20 3.5 7.8 0.00 0.00 0.00 56 1014.7
20260506015347 66 15 3.5 7.8 0.00 0.00 0.00 55 1014.7
20260506014847 67 20 2.6 6.1 0.00 0.00 0.00 54 1014.7
20260506014348 67 345 1.7 5.2 0.00 0.00 0.00 52 1014.6
20260506013848 67 359 1.7 7.8 0.00 0.00 0.00 52 1014.6
20260506013348 67 337 4.3 7.8 0.00 0.00 0.00 53 1014.6
20260506012848 67 26 3.5 7.8 0.00 0.00 0.00 53 1014.6
20260506012349 68 18 3.5 8.7 0.00 0.00 0.00 52 1014.6
20260506011847 68 28 3.5 8.7 0.00 0.00 0.00 52 1014.5
20260506011114 68 34 2.6 8.7 0.00 0.00 0.00 52 1014.5
20260506010613 68 40 3.5 7.8 0.00 0.00 0.00 52 1014.5
20260506010113 68 11 4.3 8.7 0.00 0.00 0.00 50 1014.6
20260506005613 68 20 4.3 8.7 0.00 0.00 0.00 51 1014.5
20260506005113 68 27 2.6 7.0 0.00 0.00 0.00 51 1014.5
20260506004613 69 31 2.6 7.0 0.00 0.00 0.00 51 1014.5
20260506004113 69 37 3.5 7.0 0.00 0.00 0.00 51 1014.5
20260506003613 69 35 1.7 7.0 0.00 0.00 0.00 50 1014.5
20260506003008 70 4 4.3 7.8 0.00 0.00 0.00 49 1014.5
20260506002508 69 342 2.6 7.8 0.00 0.00 0.00 49 1014.5
20260506002008 69 345 2.6 7.8 0.00 0.00 0.00 50 1014.5
20260506001508 69 48 0.9 3.5 0.00 0.00 0.00 51 1014.5
20260506000848 69 20 2.6 7.8 0.00 0.00 0.00 50 1014.6
20260506000348 69 24 2.6 7.8 0.00 0.00 0.00 50 1014.5
20260505235848 70 32 2.6 8.7 0.00 0.00 0.00 49 1014.4
20260505235348 70 335 5.2 8.7 0.00 0.00 0.00 49 1014.4
20260505234849 69 36 2.6 8.7 0.00 0.00 0.00 49 1014.4
20260505234348 69 345 3.5 8.7 0.00 0.00 0.00 50 1014.5
20260505233848 69 353 3.5 8.7 0.00 0.00 0.00 49 1014.4
20260505233350 69 337 2.6 7.8 0.00 0.00 0.00 48 1014.5
20260505232849 69 24 1.7 6.1 0.00 0.00 0.00 49 1014.5
20260505232349 70 22 2.6 7.8 0.00 0.00 0.00 48 1014.5
20260505231849 69 345 2.6 7.8 0.00 0.00 0.00 48 1014.5
20260505231048 70 22 1.7 7.0 0.00 0.00 0.00 48 1014.6
20260505230548 70 360 2.6 9.6 0.00 0.00 0.00 47 1014.6
20260505230048 70 308 4.3 9.6 0.00 0.00 0.00 47 1014.6
20260505225548 70 341 0.9 6.1 0.00 0.00 0.00 48 1014.6
20260505225049 70 242 2.6 7.0 0.00 0.00 0.00 48 1014.7
20260505224548 70 311 3.5 7.0 0.00 0.00 0.00 47 1014.6
20260505224048 70 278 3.5 7.8 0.00 0.00 0.00 46 1014.7
20260505223548 70 292 4.3 7.8 0.00 0.00 0.00 47 1014.7
20260505223048 70 324 0.9 7.0 0.00 0.00 0.00 49 1014.8
20260505222548 70 24 1.7 5.2 0.00 0.00 0.00 47 1014.8
20260505221611 70 274 4.3 8.7 0.00 0.00 0.00 46 1014.9
20260505221111 70 316 3.5 7.8 0.00 0.00 0.00 48 1014.8
20260505220612 70 279 0.9 8.7 0.00 0.00 0.00 46 1014.9
20260505220111 70 307 3.5 8.7 0.00 0.00 0.00 47 1014.9
20260505215611 70 35 1.7 8.7 0.00 0.00 0.00 48 1014.9
20260505215112 70 298 4.3 8.7 0.00 0.00 0.00 47 1015.0
20260505214612 69 337 5.2 8.7 0.00 0.00 0.00 51 1015.0
20260505214111 69 25 2.6 7.0 0.00 0.00 0.00 51 1015.1
20260505213611 69 326 0.9 9.6 0.00 0.00 0.00 51 1015.0
20260505213111 68 334 2.6 9.6 0.00 0.00 0.00 53 1015.1
20260505212320 68 44 1.7 8.7 0.00 0.00 0.00 54 1015.1
20260505211820 69 4 4.3 8.7 0.00 0.00 0.00 53 1015.2
20260505211320 69 15 3.5 9.6 0.00 0.00 0.00 53 1015.1
20260505210821 70 20 0.9 9.6 0.00 0.00 0.00 51 1015.2
20260505210321 70 350 5.2 9.6 0.00 0.00 0.00 52 1015.2
20260505205820 70 329 3.5 7.8 0.00 0.00 0.00 52 1015.3
20260505205320 70 279 3.5 7.8 0.00 0.00 0.00 52 1015.3
20260505204821 69 345 0.9 9.6 0.00 0.00 0.00 53 1015.2
20260505204320 69 346 3.5 9.6 0.00 0.00 0.00 54 1015.3
20260505203821 69 289 3.5 7.0 0.00 0.00 0.00 54 1015.3
20260505203320 68 335 1.7 7.0 0.00 0.00 0.00 54 1015.3
20260505202821 68 230 0.9 5.2 0.00 0.00 0.00 56 1015.2
20260505202320 68 314 0.9 7.0 0.00 0.00 0.00 55 1015.2
20260505201822 67 312 1.7 7.0 0.00 0.00 0.00 56 1015.2
20260505201320 67 324 3.5 5.2 0.00 0.00 0.00 57 1015.2
20260505200820 67 84 0.9 4.3 0.00 0.00 0.00 57 1015.2
20260505200320 67 93 0.9 4.3 0.00 0.00 0.00 58 1015.3
20260505195820 67 55 0.9 7.0 0.00 0.00 0.00 58 1015.3
20260505195320 67 23 2.6 7.0 0.00 0.00 0.00 58 1015.5
20260505194820 67 318 2.6 7.0 0.00 0.00 0.00 57 1015.6
20260505194320 67 344 2.6 7.0 0.00 0.00 0.00 58 1015.5
20260505193820 67 0 0.0 4.3 0.00 0.00 0.00 60 1015.6
20260505193320 66 0 0.0 6.1 0.00 0.00 0.00 59 1015.6
20260505192820 66 0 0.0 6.1 0.00 0.00 0.00 60 1015.7
20260505191825 65 0 0.0 7.0 0.00 0.00 0.00 61 1015.8
20260505191325 65 303 2.6 7.0 0.00 0.00 0.00 62 1015.8
20260505190825 65 0 0.0 6.1 0.00 0.00 0.00 63 1015.8
20260505190326 65 0 0.0 7.0 0.00 0.00 0.00 62 1015.8
20260505185825 65 309 3.5 7.0 0.00 0.00 0.00 62 1015.8
20260505185325 65 335 3.5 7.0 0.00 0.00 0.00 63 1015.8
20260505184825 64 321 2.6 5.2 0.00 0.00 0.00 64 1015.7
20260505184325 64 313 1.7 4.3 0.00 0.00 0.00 67 1015.8
20260505183825 63 0 0.0 3.5 0.00 0.00 0.00 67 1015.7
20260505183326 63 131 1.7 4.3 0.00 0.00 0.00 68 1015.6
20260505182825 63 119 2.6 4.3 0.00 0.00 0.00 66 1015.7
20260505182325 64 80 0.9 3.5 0.00 0.00 0.00 67 1015.7
20260505181825 64 0 0.0 2.6 0.00 0.00 0.00 65 1015.8
20260505181043 63 270 2.6 5.2 0.00 0.00 0.00 65 1015.7
20260505180542 63 314 1.7 5.2 0.00 0.00 0.00 66 1015.7
20260505180042 63 303 1.7 4.3 0.00 0.00 0.00 66 1015.7
20260505175543 62 21 0.9 4.3 0.00 0.00 0.00 67 1015.6
20260505175043 62 11 0.9 4.3 0.00 0.00 0.00 67 1015.8
20260505174542 62 5 1.7 3.5 0.00 0.00 0.00 68 1015.8
20260505174043 62 0 0.0 5.2 0.00 0.00 0.00 68 1015.7
20260505173543 62 329 1.7 6.1 0.00 0.00 0.00 68 1015.6
20260505173044 62 325 2.6 6.1 0.00 0.00 0.00 69 1015.6
20260505172543 62 0 0.0 5.2 0.00 0.00 0.00 70 1015.6
20260505172042 61 316 1.7 5.2 0.00 0.00 0.00 71 1015.6
20260505171544 61 0 0.0 3.5 0.00 0.00 0.00 71 1015.4
20260505171042 61 338 2.6 3.5 0.00 0.00 0.00 71 1015.4
20260505170543 61 12 1.7 5.2 0.00 0.00 0.00 72 1015.4
20260505170042 60 333 0.9 5.2 0.00 0.00 0.00 73 1015.4
20260505165542 60 317 2.6 5.2 0.00 0.00 0.00 74 1015.4
20260505165043 60 349 2.6 7.0 0.00 0.00 0.00 74 1015.5
20260505164542 60 23 2.6 7.0 0.00 0.00 0.00 74 1015.5
20260505163648 59 337 2.6 7.0 0.00 0.00 0.00 74 1015.5
20260505163147 59 323 2.6 7.0 0.00 0.00 0.00 75 1015.5
20260505162648 59 347 2.6 7.0 0.00 0.00 0.00 75 1015.4
20260505162148 59 322 3.5 7.0 0.00 0.00 0.00 76 1015.4